STARLINK-37148

Last updated on Sun Apr 12 2026 00:02:08 GMT+0000 (Coordinated Universal Time)

1 68310U 26057S 26101.50002315 -.01983585 00000+0 -13636-1 0 9994 2 68310 97.2849 225.5650 0001724 85.4915 116.2972 15.77877138 4545

Satellite not in orbit

STARLINK-37148